Flag for India Past Weather in New Okhla Industrial Development Authority, Uttar Pradesh, India — Yesterday and Last 2 Weeks

Now
81 °F

Scattered clouds.


Feels Like: 85 °F
Forecast: 85 / 107 °F
Wind: No wind

Location: New Delhi Palam Airport

Current Time: May 31, 2016 at 7:53:10 AM

Latest Report: May 31, 2016 at 7:00 AM


Visibility: 1 mi

Pressure: 29.68 "Hg

Humidity: 74%

Dew Point: 72 °F

Location of New Okhla Industrial Development AuthorityLocation

Past Weather in New Okhla Industrial Development Authority — Graph

°F

New Okhla Industrial Development Authority Temperature Yesterday

Maximum temperature yesterday: 91 °F (at 2:30 PM)
Minimum temperature yesterday: 70 °F (at 5:00 PM)
Average temperature yesterday: 80 °F

High & Low Weather Summary for the Past Weeks

 TemperatureHumidityPressure
High117 °F (May 18, 3:30 PM)89% (May 30, 6:30 AM)29.80 "Hg (May 30, 6:30 AM)
Low70 °F (May 30, 5:00 PM)8% (May 18, 2:00 PM)29.39 "Hg (May 20, 5:00 PM)
Average94 °F41%29.54 "Hg
* Reported May 16 6:30 AM — May 31 6:30 AM, New Okhla Industrial Development Authority, Weather by CustomWeather, © 2016

Note: Actual official high and low records may vary slightly from our data, if they occured in-between our weather recording intervals... More about our weather records

Advertising

New Okhla Industrial Development Authority Weather History for the Previous 24 Hours

Scroll right to see more
 ConditionsComfort  
Time TempWeatherWind HumidityBarometerVisibility
6:30 AM
Tue, May 31
79 °FFog.No wind79%29.65 "Hg1 mi
6:00 AM79 °FFog.No wind79%29.65 "Hg1 mi
5:30 AM79 °FFog.3 mph79%29.65 "Hg1 mi
5:00 AM79 °FFog.3 mph79%29.62 "Hg1 mi
4:30 AM79 °FFog.3 mph84%29.62 "Hg1 mi
4:00 AM79 °FFog.No wind79%29.65 "Hg1 mi
3:30 AM81 °FFog.8 mph79%29.65 "Hg1 mi
3:00 AM79 °FFog.No wind79%29.62 "Hg1 mi
2:30 AM79 °FFog.No wind79%29.62 "Hg1 mi
2:00 AM79 °FFog.No wind79%29.62 "Hg1 mi
1:30 AM79 °FFog.No wind79%29.62 "Hg1 mi
1:00 AM79 °FFog.No wind79%29.65 "Hg1 mi
12:30 AM79 °FFog.No wind79%29.65 "Hg1 mi
12:00 AM79 °FHaze.No wind74%29.65 "Hg1 mi
11:30 PM
Mon, May 30
79 °FHaze.No wind70%29.65 "Hg1 mi
11:00 PM79 °FHaze.3 mph70%29.68 "Hg1 mi
10:30 PM79 °FHaze.3 mph70%29.68 "Hg1 mi
10:00 PM81 °FHaze.6 mph66%29.65 "Hg1 mi
9:30 PM81 °FHaze.7 mph66%29.65 "Hg2 mi
9:00 PM81 °FHaze.7 mph66%29.65 "Hg2 mi
8:30 PM82 °FHaze.7 mph62%29.65 "Hg2 mi
8:00 PM82 °FHaze.6 mph58%29.65 "Hg2 mi
7:30 PM86 °FHaze.6 mph52%29.62 "Hg2 mi
7:00 PM86 °FHaze.6 mph52%29.62 "Hg2 mi
6:30 PM86 °FHaze.No wind49%29.59 "Hg2 mi
6:00 PM86 °FScattered clouds.6 mph49%29.59 "Hg2 mi
5:30 PM86 °FScattered clouds.10 mph49%29.59 "Hg2 mi
5:00 PM70 °FScattered clouds.6 mph88%29.59 "Hg2 mi
4:30 PM82 °FScattered clouds.6 mph62%29.65 "Hg1 mi
4:00 PM77 °FThunderstorms. Mostly cloudy.12 mph79%29.65 "Hg1 mi
3:30 PM75 °FThunderstorms. Mostly cloudy.23 mph83%29.74 "Hg1 mi
3:00 PM90 °FBroken clouds.9 mph46%29.68 "Hg2 mi
2:30 PM91 °FBroken clouds.12 mph44%29.65 "Hg2 mi
2:00 PM90 °FScattered clouds.8 mph43%29.68 "Hg2 mi
1:30 PM90 °FScattered clouds.6 mph43%29.65 "Hg2 mi
1:00 PM86 °FScattered clouds.6 mph49%29.65 "Hg2 mi
12:30 PM82 °FScattered clouds.12 mph58%29.65 "Hg2 mi
12:00 PM81 °FScattered clouds.9 mph62%29.68 "Hg1 mi
11:30 AM79 °FScattered clouds.10 mph70%29.68 "Hg1 mi
11:00 AM77 °FFog.8 mph79%29.68 "Hg1 mi
10:30 AM77 °FLight rain. More clouds than sun.17 mph79%29.65 "Hg1 mi
10:00 AM75 °FLight rain. More clouds than sun.7 mph83%29.77 "Hg1 mi
9:30 AM75 °FLight rain. More clouds than sun.12 mph83%29.80 "Hg1 mi
9:00 AM75 °FLight rain. More clouds than sun.7 mph83%29.77 "Hg1 mi
8:30 AM75 °FLight rain. More clouds than sun.7 mph83%29.77 "Hg1 mi
8:00 AM75 °FLight rain. More clouds than sun.7 mph78%29.71 "Hg1 mi
7:30 AM81 °FMore clouds than sun.10 mph66%29.65 "Hg1 mi
7:00 AM79 °FFog.12 mph79%29.65 "Hg1 mi
Weather by CustomWeather, © 2016

See weather overviewHow to use our weather pages